STARLINK-5442, 54784

Orbit data source: Space-Track

STARLINK-5442, 54784 is a payload satellite owned by SpaceX/Seattle (US) in LEO that was launched on Sat, 17 Dec 2022 UTC via an FALCON 9 launch vehicle from the Air Force Eastern Test Range (AFETR). Payload-class satellites include a variety of spacecraft equipped with specific instruments for various scientific and technological missions. These include communications satellites like Starlink; space stations such as the ISS; scientific satellites like the Hubble; Earth observation satellites from companies like Planet Labs, Umbra, and HawkEye 360; GPS; miniature CubeSats for education and research; and military/defense satellites.

Loading next visibility...
Identifier
54784, 2022-175AC
Orbit
LEO
Last TLE update
8 hours ago
Origin
Manufacturer
SpaceX/Seattle
Mission
Operational Commercial Communications
Bus & Motor
STARLINK, Unknown motor
Mass
305 kg wet, ~290 kg dry
Launch date (UTC)
2022-12-17 (2 years ago)
Launch vehicle
FALCON 9
Launch site
Air Force Eastern Test Range (AFETR)
Object type
Payload
Rocket body
Debris
Shape & HBR
Box + 1 Pan, 8.86 m
Radar Cross Section
13.562 m², Large (>1 m²)

Expand to show TLE details & history

TLE from 8 hours ago
0 STARLINK-5442
1 54784U 22175AC  25130.91427603  .00000961  00000-0  78483-4 0  9998
2 54784  53.2187 323.0902 0001505  87.2816 272.8348 15.08837560134216
Epoch: 2025-05-10T21:56Z
Definitive object data (Epoch: 2025-05-10T21:56:33.448Z)
Latitude
-0.00008°
Longitude
125.00154°
Altitude
540.597 km
Speed
7.593 km/s
True Right ascension
21h 32m 21s
True Declination
0° 00' 00"
Sunlit
Object was in daylight at TLE epoch
Visualization TLE readout
Latitude
7.66153°
Longitude
129.24663°
Altitude
539.771 km
Speed
7.594 km/s
Apparent Right ascension
23h 36m 22s
Apparent Declination
-17° 37' 46"
Sunlit
Object is in daylight
Visualization observer readout
Local Sidereal Time
14:12:38
Azimuth
68.012° E
Elevation
-49.629°
Doppler factor
1
Orbital elements
Apogee altitude
541.037 km
Perigee altitude
538.954 km
Semi-major axis
6,918.133 km
Eccentricity
0.0001505
Inclination
53.2187°
RAAN
323.0902°
Arg. of periapsis
87.2816°
True anomaly
272.81757°
Mean anomaly
272.8348°
Eccentric anomaly
272.82619°
Mean motion
3.7719 °/min
BSTAR
0.000078483
Orbital period
95.44 mins
Loading maneuver chart data...
Loading SW <> Apogee altitude chart data...
Loading historical data...
Loading historical data...
Loading historical data...
Loading historical data...
Loading historical data...
Loading historical data...
Loading historical data...

STARLINK-5442 Visibility forecast

Observer location: undefined°, undefined°

Span
Click to sort rows by Start time (UTC) header in descending order
Start Az.
Max El. time (UTC)
Max El. Az.
Max El.
End time (UTC)
End Az.
6 mins2025-05-11 15:38:00.525Z234.185° WSW2025-05-11 15:40:00.525Z307.038° NW44.757°2025-05-11 15:44:00.525Z48.617° ENE
4 mins2025-05-11 17:18:00.525Z304.361° NW2025-05-11 17:20:00.525Z341.446° N18.652°2025-05-11 17:22:00.525Z16.875° NNE
4 mins2025-05-11 20:40:00.525Z358.899° N2025-05-11 20:41:00.525Z19.214° NNE19.482°2025-05-11 20:44:00.525Z69.949° E
6 mins2025-05-11 22:18:00.525Z309.882° NW2025-05-11 22:21:00.525Z145.292° SSE44.943°2025-05-11 22:24:00.525Z131.595° SE
|